Flugplatz Karlshöfen

Für EDWK sind keine METAR/TAF Berichte vorhanden.
Es werden die Flugwettermeldungen vom Flugplatz Bremen in 35 km Entfernung angezeigt.

Bericht für EDDW

vom 25.01. um 22:20 UTC

Wind 6 kt aus 190°

Sichtweite 6000 m

aufgelockert bewölkt in 400 ft

aufgebrochene Bewölkung in 600 ft

Temperatur 0.0°C

Taupunkt -1.0°C

Luftfeuchtigkeit 93%

Luftdruck 1020 hPa

EDDW 252220Z 19006KT 6000 SCT004 BKN006 00/M01 Q1020

Prognose für EDDW

vom 25.01. um 00:00 UTC

Am 25.01. zwischen 00:00 UTC und 00:00 UTC

Wind 6 kt aus 210°

Sichtweite 6000 m

bedeckt in 600 ft


Am 25.01. zwischen 00:00 UTC und 00:00 UTC zeitweise mit einer Wahrscheinlichkeit von 40%

Sichtweite 3500 m

schwacher Sprühregen

bedeckt in 400 ft


Zwischen 00:00 und 00:00 UTC übergehend zu

Wind 6 kt aus 210°

Sichtweite 3500 m

feuchter Dunst

bedeckt in 300 ft


Zwischen 00:00 UTC und 00:00 UTC zeitweise

Sichtweite 1800 m

schwacher Sprühregen


Zwischen 00:00 UTC und 00:00 UTC zeitweise mit einer Wahrscheinlichkeit von 40%

Wind 2 kt aus 150°

Sichtweite 500 m

Nebel

bedeckt in 100 ft


Zwischen 00:00 und 00:00 UTC übergehend zu

Wind 6 kt aus 210°

Sichtweite 10 km oder mehr

feuchter Dunst

aufgelockert bewölkt in 1500 ft

TAF EDDW 251700Z 2518/2618 21006KT 6000 OVC006 PROB40 TEMPO 2518/2601 3500 -DZ OVC004 BECMG 2601/2604 3500 BR OVC003 TEMPO 2602/2610 1800 -DZ PROB40 TEMPO 2603/2609 15002KT 0500 FG OVC001 BECMG 2609/2612 9999 SCT015
Impressum